This demonstration page uses our WeatherBlox Daily Observations layout. Learn more.

Left ArrowRight Arrow

44.8408, -93.29828

Hourly Observations for July 13, 2021

Temp ( °F °C ) Dew Point ( °F °C ) Humidity (%) Winds ( mph kmh ) Pressure ( in mb ) Visibility ( mi km ) Precip ( " mm )
12:53 am 00:53 Clear 69 20.6 59 15 70 70 SSE 5 7 30.00 1016 10 16 0.00 0.00
1:53 am 01:53 Clear 69 20.6 59 15 70 70 Calm 30.00 1016 10 16 0.00 0.00
2:53 am 02:53 Clear 66 18.9 59 15 78 78 Calm 29.99 1016 10 16 0.00 0.00
3:53 am 03:53 Clear 68 20 59 15 73 73 Calm 30.00 1016 10 16 0.00 0.00
4:53 am 04:53 Mostly Clear 67 19.4 57 13.9 71 71 Calm 30.01 1016 10 16 0.00 0.00
5:53 am 05:53 Mostly Sunny 65 18.3 57 13.9 76 76 VRB 3 6 30.01 1016 9 14 0.00 0.00
6:53 am 06:53 Mostly Sunny 66 18.9 58 14.4 75 75 SSW 3 6 30.01 1016 10 16 0.00 0.00
7:53 am 07:53 Mostly Sunny 69 20.6 57 13.9 66 66 WSW 7 11 30.00 1016 10 16 0.00 0.00
8:53 am 08:53 Mostly Sunny 72 22.2 58 14.4 61 61 SW 9 15 30.00 1016 10 16 0.00 0.00
9:53 am 09:53 Sunny 76 24.4 58 14.4 54 54 SW 12 19 29.99 1016 10 16 0.00 0.00
10:53 am 10:53 Mostly Sunny 80 26.7 60 15.6 51 51 WSW 10 17 29.97 1015 10 16 0.00 0.00
11:53 am 11:53 Mostly Sunny 82 27.8 59 15 46 46 SSW 9 15 29.98 1015 10 16 0.00 0.00
12:53 pm 12:53 Partly Cloudy 84 28.9 60 15.6 44 44 W 10 17 29.98 1015 10 16 0.00 0.00
1:53 pm 13:53 Mostly Sunny 84 28.9 61 16.1 46 46 W 8 13 29.97 1015 10 16 0.00 0.00
2:53 pm 14:53 Partly Cloudy 86 30 61 16.1 43 43 W 8 13 29.97 1015 10 16 0.00 0.00
3:53 pm 15:53 Partly Cloudy 87 30.6 62 16.7 43 43 WSW 9 15 29.96 1014 10 16 0.00 0.00
4:53 pm 16:53 Partly Cloudy 85 29.4 62 16.7 46 46 SW 13 20 29.96 1015 10 16 0.00 0.00
5:53 pm 17:53 Partly Cloudy 84 28.9 62 16.7 48 48 SW 10 17 29.94 1014 10 16 0.00 0.00
6:53 pm 18:53 Partly Cloudy 84 28.9 63 17.2 49 49 SW 12 19 29.95 1014 10 16 0.00 0.00
7:53 pm 19:53 Partly Cloudy 83 28.3 65 18.3 55 55 SW 9 15 29.95 1014 10 16 0.00 0.00
8:48 pm 20:48 Mostly Cloudy with Nearby Thunderstorms 81 27 64 18 58 58 WSW 8 13 29.94 1014 10 16 0.00 0.00
8:53 pm 20:53 Mostly Cloudy with Nearby Thunderstorms 81 27.2 65 18.3 58 58 WSW 12 19 29.96 1015 10 16 0.00 0.00
9:26 pm 21:26 Mostly Cloudy 80 26.7 66 18.9 62 62 SSW 6 9 29.96 1014 10 16 0.00 0.00
9:53 pm 21:53 Mostly Cloudy with Nearby Thunderstorms 80 26.7 66 18.9 62 62 SW 7 11 29.98 1015 10 16 0.00 0.00
10:18 pm 22:18 Mostly Cloudy 79 26.1 66 18.9 65 65 SW 9 15 29.96 1015 10 16 0.00 0.00
10:53 pm 22:53 Mostly Cloudy 78 25.6 67 19.4 69 69 SW 6 9 29.97 1015 10 16 0.00 0.00
11:53 pm 23:53 Partly Cloudy 77 25 67 19.4 71 71 SSW 6 9 29.99 1016 10 16 0.00 0.00

Powered by AerisWeather